This demonstration page uses our WeatherBlox Daily Observations layout. Learn more.

Left ArrowRight Arrow

38.80484, -77.04692

Hourly Observations for April 16, 2018

Temp ( °F °C ) Dew Point ( °F °C ) Humidity (%) Winds ( mph kmh ) Pressure ( in mb ) Visibility ( mi km ) Precip ( " mm )
12:18 am 00:18 Cloudy with Light Rain 50 10 47 8.3 89 89 ENE 23 37 29.68 1005 3 4 0.01 0.25
12:29 am 00:29 Cloudy with Light Rain 50 10 48 8.9 93 93 NE 21 33 29.71 1006 3 4 0.01 0.25
12:52 am 00:52 Cloudy with Light Rain 51 10.6 49 9.4 92 92 ENE 21 33 29.65 1004 3 4 0.01 0.25
1:19 am 01:19 Cloudy with Light Rain 54 12.2 51 10.6 90 90 WNW 14 22 29.65 1004 3 4 0.01 0.25
1:27 am 01:27 Cloudy with Drizzle 57 13.9 54 12.2 90 90 E 22 35 29.65 1004 5 8 0.01 0.25
1:44 am 01:44 Cloudy with Thunderstorms 57 13.9 55 12.8 93 93 ENE 14 22 29.62 1003 8 13 0.03 0.76
1:52 am 01:52 Cloudy with Thunderstorms 57 13.9 55 12.8 93 93 SW 16 26 29.64 1004 7 11 0.04 1.02
1:57 am 01:57 Cloudy with Strong Thunderstorms 57 13.9 55 12.8 93 93 Calm 29.62 1003 3 4 0.02 0.51
2:09 am 02:09 Cloudy with Strong Thunderstorms 57 13.9 54 12.2 90 90 NNE 9 15 29.62 1003 3 5 0.17 4.32
2:36 am 02:36 Cloudy with Heavy Rain 57 13.9 55 12.8 93 93 N 12 19 29.56 1001 3 4 0.35 8.89
2:39 am 02:39 Cloudy with Heavy Rain 57 13.9 55 12.8 93 93 N 14 22 29.53 1000 2 3 0.38 9.65
2:43 am 02:43 Cloudy with Heavy Rain 57 13.9 55 12.8 93 93 WNW 14 22 29.56 1001 3 4 0.44 11.18
2:45 am 02:45 Cloudy with Heavy Rain 57 13.9 54 12.2 90 90 W 21 33 29.56 1001 1 1 0.46 11.68
2:48 am 02:48 Cloudy with Heavy Rain 57 14 55 13 94 94 NW 9 15 29.59 1002 0 0 0.49 12.45
2:52 am 02:52 Cloudy with Strong Thunderstorms 58 14.4 55 12.8 90 90 N 13 20 29.56 1001 2 2 0.84 21.34
2:57 am 02:57 Cloudy with Strong Thunderstorms 58 14.4 56 13.3 93 93 N 10 17 29.59 1002 2 2 0.10 2.54
3:01 am 03:01 Cloudy with Strong Thunderstorms 58 14.4 56 13.3 93 93 N 10 17 29.59 1002 1 2 0.19 4.83
3:10 am 03:10 Cloudy with Light Rain 57 13.9 54 12.2 90 90 N 13 20 29.56 1001 4 6 0.41 10.41
3:37 am 03:37 Cloudy with Rain 57 13.9 55 12.8 93 93 ENE 6 9 29.56 1001 5 8 0.53 13.46
3:52 am 03:52 Cloudy with Rain 57 13.9 55 12.8 93 93 ENE 8 13 29.56 1001 5 8 0.61 15.49
4:52 am 04:52 Cloudy with Light Rain 62 16.7 59 15 90 90 SE 14 22 29.53 1000 10 16 0.15 3.81
5:52 am 05:52 Cloudy 61 16.1 57 13.9 87 87 VRB 3 6 29.45 997 10 16 0.05 1.27
6:24 am 06:24 Cloudy 61 16.1 58 14.4 90 90 SSE 7 11 29.47 998 10 16 0.00 0.03
6:52 am 06:52 Cloudy with Light Rain 62 16.7 57 13.9 84 84 SSE 10 17 29.46 998 10 16 0.00 0.03
6:59 am 06:59 Cloudy 62 16.7 57 13.9 84 84 SSE 10 17 29.47 998 10 16 0.00 0.03
7:52 am 07:52 Cloudy 58 14.4 54 12.2 87 87 W 8 13 29.46 998 10 16 0.00 0.03
7:55 am 07:55 Cloudy 59 15 55 12.8 87 87 W 8 13 29.47 998 10 16 0.00 0.00
8:38 am 08:38 Cloudy 53 11.7 49 9.4 86 86 NW 14 22 29.47 998 10 16 0.00 0.00
8:45 am 08:45 Cloudy with Rain 52 11.1 48 8.9 86 86 NNW 12 19 29.44 997 2 3 0.00 0.03
8:52 am 08:52 Cloudy with Heavy Rain 51 10.6 48 8.9 89 89 NNW 13 20 29.46 998 2 3 0.07 1.78
9:03 am 09:03 Cloudy with Rain 51 10.6 47 8.3 86 86 NW 13 20 29.47 998 4 6 0.08 2.03
9:17 am 09:17 Cloudy with Light Rain 50 10 45 7.2 83 83 NW 17 28 29.47 998 10 16 0.09 2.29
9:35 am 09:35 Cloudy with Rain 49 9.4 44 6.7 83 83 NW 7 11 29.50 999 7 11 0.10 2.54
9:52 am 09:52 Cloudy with Light Rain 50 10 45 7.2 83 83 W 9 15 29.50 999 10 16 0.12 3.05
10:40 am 10:40 Cloudy 51 10.6 45 7.2 80 80 NW 12 19 29.50 999 10 16 0.00 0.03
10:52 am 10:52 Cloudy 51 10.6 45 7.2 80 80 NW 9 15 29.51 999 10 16 0.00 0.03
11:39 am 11:39 Cloudy 53 11.7 44 6.7 72 72 WNW 13 20 29.53 1000 10 16 0.00 0.00
11:52 am 11:52 Cloudy 53 11.7 44 6.7 72 72 W 17 28 29.53 1000 10 16 0.00 0.00
12:33 pm 12:33 Cloudy 54 12.2 42 5.6 64 64 W 16 26 29.53 1000 10 16 0.00 0.00
12:52 pm 12:52 Cloudy with Light Rain 53 11.7 42 5.6 66 66 W 9 15 29.55 1001 10 16 0.00 0.03
1:52 pm 13:52 Cloudy with Light Rain 52 11.1 42 5.6 69 69 W 20 31 29.58 1002 9 14 0.01 0.25
2:52 pm 14:52 Cloudy 54 12.2 39 3.9 57 57 W 16 26 29.59 1002 10 16 0.00 0.03
3:52 pm 15:52 Cloudy 54 12.2 36 2.2 51 51 NW 14 22 29.60 1002 10 16 0.00 0.00
4:52 pm 16:52 Cloudy 53 11.7 36 2.2 52 52 NW 15 24 29.61 1003 10 16 0.00 0.00
5:52 pm 17:52 Cloudy 52 11.1 32 0 47 47 NW 15 24 29.65 1004 10 16 0.00 0.00
6:52 pm 18:52 Cloudy 52 11.1 32 0 47 47 NW 8 13 29.66 1004 10 16 0.00 0.00
7:52 pm 19:52 Cloudy 52 11.1 30 -1.1 43 43 WNW 9 15 29.67 1005 10 16 0.00 0.00
8:52 pm 20:52 Cloudy 50 10 31 -0.6 48 48 WNW 12 19 29.71 1006 10 16 0.00 0.00
9:52 pm 21:52 Cloudy 50 10 29 -1.7 44 44 WNW 13 20 29.73 1007 10 16 0.00 0.00
10:52 pm 22:52 Cloudy 48 8.9 29 -1.7 48 48 NW 14 22 29.74 1007 10 16 0.00 0.00
11:52 pm 23:52 Cloudy 46 7.8 28 -2.2 50 50 W 12 19 29.75 1008 10 16 0.00 0.00

Powered by AerisWeather